Location: Folelli
(42.4446°N, 9.5098°E)
Time: 00:34:31
(UTC+00:00)

Daily predictions for brighter satellites

Satellite Brightness Start Highest point End
(mag) Time Altitude Azimuth Time Altitude Azimuth Time Altitude Azimuth
Cosmos 1980 Rocket 4.4 01:05:33 20° NE 01:05:33 20° NE 01:07:23 10° NE
Cosmos 2263 Rocket 4.5 01:01:19 10° N 01:03:49 19° NNE 01:03:49 19° NNE
Lacrosse 5 4.5 01:22:28 17° NNE 01:22:28 17° NNE 01:23:39 10° NE
SL-16 R/B 4.4 01:24:46 19° E 01:24:46 19° E 01:27:45 10° NE
Resurs 1-4 Rocket 4.5 01:25:46 10° N 01:26:56 17° N 01:26:56 17° N
CZ-2D R/B 4.4 01:32:23 10° N 01:33:36 17° N 01:33:36 17° N
USA 267 3.8 01:44:11 10° NE 01:49:37 49° ESE 01:49:37 49° ESE
ARIANE 5 R/B 4.2 01:47:07 10° NNE 01:50:06 30° NE 01:50:06 30° NE
Gbstr 26 Del rocket 4.5 02:03:39 65° NNW 02:04:52 76° NNE 02:12:25 10° ESE
ATLAS 2AS CENTAUR R/B 4.4 01:59:03 10° NNW 02:05:42 32° NE 02:11:55 10° E
SL-4 R/B 3.7 02:21:54 36° ENE 02:21:54 36° ENE 02:24:44 10° ENE
ADEOS II 3.6 02:15:45 10° N 02:18:20 28° N 02:18:20 28° N
IDEFIX/ARIANE 42P 3.0 02:17:44 10° NNE 02:22:24 60° ENE 02:22:24 60° ENE
USA 234 4.3 02:18:55 10° E 02:24:58 42° NNE 02:30:48 11° NW
Cosmos 1238 Rocket 4.4 02:28:37 10° NNW 02:33:16 47° NNW 02:33:16 47° NNW
Cosmos 1605 Rocket 4.0 02:28:49 10° N 02:35:16 85° E 02:37:19 47° SSE
Cosmos 2360 Rocket 3.6 02:33:12 22° SSE 02:35:53 33° ESE 02:40:53 10° NE
H-2A R/B 3.7 02:32:34 10° SE 02:36:33 35° ENE 02:40:39 10° N
Cosmos 1980 Rocket 3.5 02:47:19 27° NW 02:47:19 27° NW 02:51:05 10° N
CZ-2C R/B 4.0 02:41:33 10° NNE 02:46:15 34° E 02:50:55 10° SSE
Cosmos 2263 Rocket 4.2 02:44:30 10° NNW 02:57:27 - S 02:45:20 14° NNW
ASTEX 1 4.2 02:48:02 10° N 02:51:25 39° NNW 02:51:25 39° NNW
Cosmos 1844 Rocket 4.3 02:49:03 10° N 02:54:09 34° NE 02:59:15 10° ESE
Cosmos 2322 Rocket 2.1 02:54:20 63° SSW 02:55:18 88° ESE 03:01:03 10° NNE
Cosmos 1898 Rocket 3.4 02:53:13 10° NNW 02:58:31 85° WSW 03:03:49 10° SSE
Cosmos 1666 4.0 02:56:53 10° N 02:59:07 33° N 02:59:07 33° N
Spot 4 Rocket 3.9 02:55:52 10° N 03:00:58 65° WNW 03:01:00 65° WNW
X-37B 3.3 03:04:31 14° SE 03:04:31 14° SE 03:05:02 10° SE
Meteor 1-11 Rocket 3.7 02:57:05 10° N 03:02:50 82° ENE 03:08:26 10° SSE
Lacrosse 5 3.8 03:01:39 16° NNW 03:02:57 17° NNW 03:06:19 10° NNE
SL-16 R/B 2.2 03:06:39 56° W 03:07:24 62° WNW 03:13:03 10° NNE
Meteor 1-27 Rocket 3.8 03:05:04 25° S 03:08:44 83° E 03:14:39 10° NNE
Cosmos 1727 Rocket 3.9 03:09:26 30° SSW 03:12:49 76° W 03:19:10 10° N
IRIDIUM 104 4.2 03:08:07 10° N 03:13:19 68° W 03:15:23 36° SSW
Cosmos 2100 Rocket 4.3 03:08:55 10° N 03:15:19 71° E 03:21:38 10° SSE
Cosmos 2237 4.3 03:13:42 29° SSW 03:16:42 79° ESE 03:22:25 10° NNE
Cosmos 1937 Rocket 3.3 03:12:52 10° NNW 03:18:01 80° WSW 03:23:09 10° SSE
CZ-4C R/B 4.4 03:20:03 28° NNW 03:20:03 28° NNW 03:21:49 10° NNW
Cosmos 1459 Rocket 4.2 03:13:24 10° N 03:19:28 69° E 03:25:28 10° SSE
FALCON 9 DEB 4.5 03:20:10 30° N 03:20:10 30° N 03:22:52 10° NE
Cosmos 841 Rocket 3.4 03:18:31 32° SSW 03:21:01 89° ESE 03:26:20 10° NNE
IRIDIUM 114 4.3 03:17:19 10° NNW 03:22:26 56° W 03:24:29 34° SSW
Cosmos 2219 Rocket 4.0 03:19:04 10° SSE 03:23:52 29° ESE 03:28:43 10° NE
Cosmos 1802 Rocket 4.5 03:19:20 10° N 03:25:31 63° E 03:31:45 10° SSE
Cosmos 2208 Rocket 4.0 03:22:05 22° SSW 03:25:33 78° ESE 03:30:46 10° NNE
Cosmos 1536 2.7 03:21:39 10° N 03:25:44 80° W 03:29:47 10° S
Cosmos 1763 Rocket 3.9 03:25:15 41° W 03:26:06 44° WNW 03:31:11 10° N
Cosmos 1814 Rocket 4.0 03:23:39 21° SSW 03:27:11 80° ESE 03:32:29 10° NNE
ARIANE 5 R/B 3.7 03:26:45 10° NNW 03:30:25 24° WNW 03:30:25 24° WNW
USA 32 3.9 03:25:42 10° N 03:30:55 67° W 03:36:07 10° S
Cosmos 1707 Rocket 3.7 03:32:27 45° WSW 03:33:01 48° WNW 03:37:15 10° N
USA 267 3.6 03:27:16 10° NE 03:33:34 52° NNW 03:36:58 27° W
NOSS 3-4 (A) 3.8 03:26:28 10° NW 03:33:35 83° WSW 03:41:28 10° SSE
NOSS 3-4 (C) 3.8 03:26:35 10° NW 03:33:42 84° SW 03:41:34 10° SSE
ADEOS Rocket 3.2 03:29:44 10° SSE 03:36:25 81° ENE 03:42:26 10° NNW
CZ-4B R/B 2.5 03:36:21 10° SE 03:39:23 43° ENE 03:42:32 10° N
ERS-2 2.0 03:36:56 10° SSE 03:40:36 84° WSW 03:44:17 10° NNW
Cosmos 540 Rocket 3.5 03:38:54 26° SW 03:41:41 61° WNW 03:46:50 10° NNE
MSX 4.4 03:40:36 10° N 03:45:52 38° WNW 03:48:33 24° WSW
COSMOS 2428 4.1 03:41:11 10° S 03:46:26 39° ESE 03:51:43 10° NE
Cosmos 44 Rocket 3.5 03:44:48 31° WSW 03:46:42 49° NW 03:51:26 10° NNE
Cosmos 1733 Rocket 3.0 03:44:39 10° NNW 03:48:57 61° W 03:53:11 10° S
Cosmos 1544 4.1 03:46:46 10° N 03:50:16 47° E 03:53:44 10° SSE
Cosmos 1743 2.7 03:47:47 10° N 03:51:37 80° E 03:55:25 10° S
PAYLOAD A 4.0 03:49:00 10° N 03:53:32 49° WNW 03:57:13 15° SW
Landsat 5 4.2 03:50:06 10° SSW 03:54:11 34° W 03:58:15 10° NNW
Cosmos 2333 Rocket 2.8 03:49:43 10° S 03:55:21 59° ESE 04:01:01 10° NNE
Cosmos 2173 Rocket 4.0 03:51:00 10° NNW 03:57:15 61° W 04:03:29 10° S
ADEOS 3.7 03:52:05 10° NNE 03:57:20 81° ESE 04:02:33 10° SSW
ATLAS 2AS CENTAUR R/B 2.7 03:49:57 10° NW 03:57:20 71° WSW 04:04:04 10° SSE
Cosmos 2242 Rocket 3.9 03:54:00 10° S 03:58:20 68° E 04:02:45 10° NNE
CZ-2C R/B 4.3 03:56:20 10° NNW 03:58:54 19° WNW 03:58:54 19° WNW
BREEZE M DEB (TANK) 3.9 03:48:38 10° WNW 03:59:11 40° SW 04:02:55 10° SSE
SL-4 R/B 3.4 03:57:30 19° WNW 04:00:08 34° NNW 04:04:31 10° NE
Cosmos 2322 3.8 03:54:31 10° SSW 04:00:11 83° ESE 04:05:52 10° NNE
Cosmos 1570 Rocket 4.5 03:58:30 18° SW 04:02:02 42° WNW 04:07:08 10° N
IDEFIX/ARIANE 42P 4.0 03:58:34 10° NNW 04:02:02 18° WNW 04:03:12 17° WNW
PSLV R/B 4.0 03:58:55 10° N 04:02:48 38° WNW 04:05:43 16° SW
Meteor 2-20 Rocket 4.5 03:57:41 10° S 04:03:50 90° SE 04:10:00 10° N
BREEZE-M DEB (TANK) 2.7 03:59:36 19° W 04:04:18 69° NNW 04:07:08 10° ENE
Meteor 2-20 4.4 03:59:31 10° SSW 04:05:36 65° W 04:11:41 10° N
USA 276 2.5 04:03:18 16° NW 04:05:41 64° NNE 04:08:52 10° ESE
USA 234 3.2 04:01:12 10° SE 04:07:43 72° SW 04:14:15 10° NW
Cosmos 1862 Rocket 3.9 04:03:45 10° SSW 04:07:53 42° WNW 04:12:02 10° N
H-2A R/B 3.2 04:09:07 10° SSW 04:12:35 23° W 04:16:09 10° NW
SAR-Lupe-4 3.4 04:10:01 10° S 04:13:35 77° WSW 04:17:12 10° NNW
CZ-4C R/B 3.5 04:07:54 10° NNW 04:15:07 64° NE 04:23:23 10° SE
Cosmos 1689 Rocket 3.0 04:12:42 10° SSE 04:15:35 51° ENE 04:18:30 10° N
ALOS 2.2 04:12:06 10° N 04:16:48 83° WNW 04:21:27 10° SSW
Cosmos 2333 4.2 04:12:39 10° SSW 04:18:24 71° WNW 04:24:12 10° NNE
PKM 4.0 04:15:06 10° WNW 04:18:33 55° SW 04:22:54 10° SE
FENGYUN 3A 3.6 04:13:44 10° NNE 04:19:10 82° WNW 04:24:34 10° SSW
Cosmos 2360 Rocket 2.8 04:15:02 12° WSW 04:19:47 38° WNW 04:25:02 10° N
COSMOS 2455 4.4 04:17:21 10° NNW 04:22:57 38° NE 04:28:30 10° ESE
CZ-2C R/B 3.3 04:19:51 10° N 04:24:22 31° WNW 04:28:53 10° SW
Cosmos 1975 2.8 04:21:05 10° N 04:25:07 86° E 04:29:06 10° S
Meteor 1-19 Rocket 4.2 04:20:34 10° SSW 04:26:03 81° W 04:31:44 10° N
Meteor 1-18 Rocket 4.1 04:21:16 10° SSW 04:26:47 74° W 04:32:24 10° N
Cosmos 2016 Rocket 4.1 04:23:07 10° NNW 04:28:58 50° W 04:34:49 10° SSW
Cosmos 372 Rocket 4.4 04:24:16 10° NW 04:28:59 37° WSW 04:33:38 10° SSW
SAR-Lupe-1 4.3 04:29:15 10° S 04:32:41 45° W 04:36:09 10° NNW
Cosmos 1484 Rocket 3.1 04:30:09 10° N 04:34:00 46° WNW 04:37:50 10° SW
Cosmos 2061 Rocket 4.3 04:29:43 10° NNW 04:35:49 46° W 04:41:53 10° SSW
Cosmos 1515 4.0 04:32:43 10° SSW 04:36:20 43° WNW 04:39:58 10° N
ATLAS CENTAUR Rocket 4.1 04:28:39 10° WSW 04:36:53 23° SSW 04:40:38 10° SSE
Cosmos 1844 Rocket 3.2 04:32:55 10° NW 04:38:04 37° WSW 04:43:13 10° S
Cosmos 2233 Rocket 4.0 04:32:38 10° N 04:38:48 80° W 04:44:56 10° S
Cosmos 2322 Rocket 3.8 04:36:34 10° W 04:40:10 17° NW 04:43:46 10° N
Cosmos 2278 Rocket 3.3 04:37:40 10° NNW 04:43:11 49° ENE 04:48:37 10° SE
Okean 1 4.2 04:40:54 10° SW 04:44:26 28° WNW 04:47:58 10° NNW
COSMO-SKYMED 1 2.5 04:41:59 10° S 04:46:19 75° W 04:50:40 10° NNW
Cosmos 1844 4.1 04:41:44 10° NW 04:46:51 38° WSW 04:51:57 10° S
